Theta_e
304 304 304 304 304 304 304 304 304 305 307 309 310 311 311 312 312 308 304 307 302 298 299 301 301 296 295 294 292 293 291 292 290 288 287 286 282 286 286 288 288 285 282 285 287 284 281 296 293 286 290 294 296 297
303 303 304 303 303 303 304 304 304 306 307 309 310 310 311 312 312 310 301 304 307 299 298 302 303 303 301 300 296 292 290 290 292 289 291 291 285 284 285 281 292 283 289 288 288 286 295 298 297 297 297 296 297 297
302 302 302 302 302 303 303 304 304 305 306 308 309 309 310 309 310 308 303 304 303 297 297 297 297 302 304 303 304 291 293 296 297 302 295 291 285 287 282 284 288 291 292 287 288 290 293 295 299 300 299 297 298 300
301 301 301 302 302 302 303 303 303 304 306 308 308 309 310 309 309 308 302 304 302 298 291 293 302 299 305 304 302 302 299 299 299 300 295 294 288 291 287 289 288 291 290 288 288 291 294 295 298 298 297 298 298 301
300 300 301 301 301 302 302 303 303 304 306 307 307 309 309 309 308 307 305 305 305 297 292 293 298 301 301 300 300 301 299 297 294 292 290 291 295 291 292 292 285 291 289 288 288 290 293 294 298 298 296 296 298 299
299 300 300 300 300 301 301 302 303 304 304 306 307 308 308 308 307 303 297 304 306 304 295 289 298 296 300 299 298 298 299 298 296 293 292 296 297 297 290 282 290 293 295 294 291 293 297 298 298 298 295 296 299 302
299 299 299 299 300 300 301 302 303 303 304 305 306 307 307 307 304 298 296 302 306 304 295 289 286 293 298 298 298 297 299 298 297 295 294 294 294 299 294 287 293 295 295 295 295 295 293 295 293 296 296 297 300 304
299 299 299 299 299 300 300 301 302 303 303 305 306 306 307 306 305 300 302 305 306 300 297 288 286 289 296 294 293 298 296 301 300 299 299 297 297 298 291 293 293 295 295 295 294 295 294 295 295 294 295 296 296 300
298 299 298 298 299 299 300 300 302 302 303 304 306 306 304 301 298 299 308 308 305 299 290 291 285 284 298 298 298 301 301 295 299 295 294 296 293 290 293 295 293 293 291 290 293 294 292 292 292 293 293 293 294 297
297 298 298 298 298 298 299 299 301 302 303 304 302 298 294 299 306 305 300 296 295 296 294 288 291 286 293 291 291 293 297 295 288 294 297 293 289 293 294 293 293 293 293 291 288 290 290 290 291 291 291 293 294 295
299 299 298 298 299 298 298 299 300 302 302 297 296 294 300 306 301 297 292 290 290 287 291 291 289 288 294 288 287 292 291 292 288 291 292 289 288 292 294 293 293 293 293 294 293 293 293 292 291 291 291 292 292 293
298 298 299 299 299 299 298 299 300 296 295 297 297 299 300 297 293 289 288 290 288 286 290 288 293 293 294 296 290 292 292 292 288 296 292 286 294 293 294 293 292 293 295 293 293 292 292 291 291 291 291 290 291 292
298 298 298 299 299 298 298 298 299 300 301 300 295 292 292 291 285 285 282 285 287 294 297 296 293 297 297 300 295 294 290 289 297 291 289 292 293 294 294 293 293 295 294 293 292 293 292 291 291 290 290 290 291 290
298 298 299 298 298 299 299 298 299 298 297 291 288 283 286 284 287 286 287 288 292 295 294 293 292 293 296 295 295 291 294 295 290 286 289 293 293 294 294 295 293 291 291 290 291 291 291 290 289 289 289 289 289 288
298 298 298 298 299 299 299 299 300 296 293 288 289 282 285 288 290 291 293 292 294 297 295 293 294 294 291 293 294 294 291 288 291 289 292 294 294 294 294 293 292 292 291 291 291 290 291 291 289 288 289 288 288 288
298 298 295 298 299 300 300 299 295 293 290 289 288 286 288 287 288 288 291 292 298 296 296 295 292 290 289 292 289 287 288 286 290 294 296 296 295 294 293 294 294 294 293 292 292 292 291 291 289 288 289 288 287 286
298 292 297 298 299 298 300 296 291 287 287 287 285 289 287 287 286 287 288 291 296 293 288 290 288 288 293 290 289 288 285 291 296 297 298 297 295 294 294 295 296 296 295 294 293 291 290 290 291 289 286 287 288 287
291 293 297 298 298 297 292 294 288 287 284 285 283 285 288 289 289 290 292 293 291 292 292 290 292 287 287 286 286 289 294 294 301 301 299 298 297 297 297 295 297 295 294 294 293 292 290 287 286 287 287 287 287 287
294 295 298 299 297 294 289 288 288 283 284 285 286 288 288 288 291 292 293 294 294 294 294 291 288 287 289 293 292 294 294 296 297 301 302 301 299 298 298 297 297 294 293 293 292 291 289 287 285 286 288 287 286 286
297 298 298 298 298 290 287 287 292 287 284 284 287 287 287 287 289 290 291 292 291 291 290 289 287 289 292 295 298 296 297 299 301 299 299 300 300 299 297 296 294 293 293 292 292 291 289 287 286 285 285 285 283 283
295 294 297 297 293 291 286 286 286 286 287 284 285 285 285 287 286 287 288 292 287 288 288 290 290 292 294 296 299 299 299 302 302 301 301 297 298 298 297 296 296 294 292 291 290 290 290 288 287 286 285 284 285 285
294 298 294 294 289 289 287 287 284 285 284 285 284 286 284 284 286 287 290 288 289 291 291 291 291 292 293 294 297 300 302 303 303 304 301 298 297 296 298 299 297 294 293 293 293 292 290 290 290 289 287 287 287 286
297 295 291 290 285 285 281 287 282 283 280 283 285 283 283 285 288 290 287 289 291 294 293 292 294 294 294 296 297 300 303 302 300 302 303 299 300 298 298 297 298 296 293 292 295 293 292 290 289 290 289 287 286 285
295 288 285 285 283 280 286 284 286 286 287 284 283 281 284 287 290 287 286 289 293 294 294 295 293 293 293 295 295 298 299 300 299 300 300 301 299 300 301 300 297 298 298 297 296 294 293 293 291 290 289 288 287 286
282 282 283 280 285 281 281 282 284 285 282 284 283 285 287 290 286 285 286 289 292 292 294 295 294 295 293 294 295 297 300 301 299 298 299 303 298 299 299 300 299 298 300 298 295 295 294 293 292 291 291 289 288 287
278 282 281 283 284 282 283 281 283 283 284 284 287 289 288 286 285 285 288 292 293 295 296 296 295 295 293 295 296 297 300 301 301 298 300 300 301 298 296 296 296 296 300 299 297 296 295 294 294 294 293 292 289 292
278 281 286 290 289 289 287 289 290 287 286 285 286 286 286 285 286 290 294 297 296 298 299 299 299 297 297 296 296 301 302 303 303 301 302 301 301 302 300 298 296 297 300 300 299 298 296 296 295 296 295 297 294 294
285 286 284 288 289 289 287 287 288 287 287 290 290 287 287 289 288 294 298 302 303 302 300 301 302 302 300 301 301 303 300 301 303 302 300 300 300 301 303 302 302 291 300 303 301 300 298 297 297 297 296 295 296 298
285 289 290 287 289 289 288 287 288 291 294 291 289 290 291 294 300 300 301 302 304 302 301 303 300 302 301 302 302 301 300 299 299 296 295 296 295 297 300 300 298 299 298 297 288 296 300 299 298 298 298 298 298 298
287 290 288 288 287 287 291 292 291 294 296 297 297 297 297 298 301 304 303 302 301 300 300 300 302 301 298 300 300 302 301 300 299 298 295 293 295 298 299 299 299 299 298 298 297 294 288 296 294 298 298 297 296 296
291 291 290 290 288 291 292 294 295 296 295 295 297 295 295 297 300 303 303 303 302 300 301 301 302 302 301 299 299 299 299 303 302 301 302 301 301 301 301 300 299 299 299 300 299 299 298 298 297 298 298 296 297 296
288 288 287 286 287 291 294 292 293 292 294 294 294 296 294 293 294 298 302 303 302 298 294 301 301 301 302 300 300 298 293 298 298 303 303 301 301 301 302 303 302 301 300 299 299 299 298 298 297 297 298 299 298 298
288 289 289 289 288 289 291 291 292 292 294 293 295 295 295 293 292 295 302 302 301 300 298 297 297 295 295 295 293 291 290 290 287 286 287 289 290 294 299 300 301 300 300 299 298 298 298 299 298 298 299 299 298 298
Wind_Speed
11 11 12 13 14 14 15 16 17 19 19 19 18 18 17 15 14 5 4 3 3 5 8 12 14 14 7 1 7 8 8 4 5 5 2 3 1 4 4 4 5 2 2 3 4 5 5 4 2 2 6 15 18 18
12 12 12 13 14 15 15 15 17 18 18 18 18 18 17 15 14 8 3 3 3 5 6 8 16 15 15 20 10 4 5 1 5 1 1 2 2 3 2 5 3 3 5 3 6 7 1 4 6 6 12 19 19 17
12 13 13 13 14 15 15 16 17 19 18 16 16 19 17 12 9 7 2 3 3 4 7 10 13 15 14 17 16 5 4 8 4 3 1 3 4 3 2 5 4 4 2 3 4 3 7 11 6 6 9 15 17 17
12 13 14 15 15 15 16 17 18 20 18 14 15 17 17 12 10 9 3 2 2 4 6 6 6 12 8 16 15 25 11 1 3 2 3 3 3 4 4 6 5 6 1 3 7 11 10 3 7 10 14 16 16 16
12 13 14 15 15 16 16 17 18 20 19 16 17 16 14 11 10 7 5 6 8 4 5 8 14 29 14 7 9 18 18 10 1 1 3 4 3 1 4 0 4 5 7 3 6 5 7 11 12 12 15 17 16 16
12 13 14 15 15 16 16 17 18 19 19 19 18 18 14 9 8 3 3 2 3 5 4 5 5 15 21 12 13 14 16 9 5 5 5 4 5 2 3 4 7 7 6 5 5 3 6 12 9 8 15 16 16 15
13 13 14 15 16 16 17 18 19 19 19 20 17 17 12 8 3 3 4 1 5 3 3 6 7 7 6 5 2 4 8 5 6 4 5 4 4 3 3 7 5 7 3 4 3 3 6 4 8 12 13 15 16 11
14 14 14 15 15 17 17 18 19 19 19 19 18 17 15 11 9 7 7 14 6 3 3 5 7 8 4 3 2 4 4 3 3 5 2 4 1 4 6 8 1 5 5 4 4 5 3 8 9 10 12 12 14 12
14 14 15 15 16 17 18 18 19 19 19 20 19 19 5 4 3 3 3 4 5 3 3 4 3 6 6 4 3 2 4 3 3 5 5 5 3 6 8 5 6 3 4 2 5 4 6 7 10 9 10 13 12 13
15 15 14 15 16 16 17 18 19 20 21 21 5 2 3 2 2 4 2 1 2 3 4 5 2 8 7 6 6 3 2 4 4 7 3 4 5 1 3 7 7 6 6 6 3 4 6 7 10 10 9 10 10 9
16 16 15 15 15 16 17 17 17 19 12 2 2 2 4 4 2 3 3 3 2 4 3 4 5 11 4 6 5 5 4 3 2 6 7 4 4 5 6 8 6 7 7 7 6 3 4 5 7 9 9 10 10 10
17 17 16 17 16 15 16 16 15 6 3 8 9 5 3 3 3 4 3 3 5 5 4 4 3 5 4 5 4 5 3 2 7 4 4 3 0 10 10 10 6 7 8 6 5 6 7 8 8 8 8 8 8 8
17 17 17 17 16 16 15 15 14 13 10 3 3 3 3 3 4 5 6 5 5 6 4 5 6 3 2 5 5 3 4 6 1 1 4 3 9 8 10 9 7 8 6 5 6 7 8 9 9 9 8 9 8 8
18 17 18 17 16 16 15 14 13 9 3 3 3 5 5 6 6 7 5 3 4 0 2 1 3 4 3 5 5 4 5 2 3 3 5 5 11 11 9 9 8 7 6 6 6 6 7 8 8 8 8 8 7 9
18 17 17 16 17 18 16 14 12 2 3 4 4 6 8 6 5 4 5 3 5 3 3 2 1 2 3 7 2 4 2 5 3 3 4 8 12 12 11 9 8 7 6 5 5 5 7 8 8 7 8 8 8 8
14 15 11 18 16 14 13 11 2 2 3 4 7 6 7 6 7 4 4 4 4 5 2 1 1 3 5 1 1 4 4 3 4 1 8 11 12 11 10 9 8 8 7 6 5 6 6 8 9 8 8 8 9 9
11 4 6 8 9 13 13 3 4 5 6 6 5 6 8 8 9 11 4 6 2 3 3 2 4 3 6 4 4 7 6 12 4 7 7 11 12 10 8 7 7 7 9 8 7 8 7 5 8 8 8 7 8 9
5 6 14 16 13 8 3 4 4 5 8 6 7 6 6 6 9 10 8 7 2 3 2 4 2 2 3 3 3 2 6 10 6 5 8 9 10 10 8 7 7 9 8 10 10 10 8 6 7 5 7 6 6 6
8 7 12 14 8 3 3 4 4 5 9 5 6 8 8 7 8 10 8 9 6 5 2 1 4 3 3 3 5 2 2 5 7 3 2 8 10 10 8 7 9 6 7 8 11 7 5 6 6 5 4 3 3 3
15 15 15 14 7 4 4 3 2 5 4 5 6 9 9 9 10 9 9 7 4 2 3 5 6 4 4 4 4 4 3 4 4 1 2 3 7 10 10 9 6 6 7 8 8 8 7 6 4 4 4 4 4 3
7 7 11 7 3 4 3 3 4 5 4 5 5 7 8 5 7 10 11 9 4 5 7 5 5 5 5 3 4 4 4 6 5 1 3 4 5 9 7 7 8 7 7 6 7 5 6 5 5 4 5 4 3 3
4 8 3 6 3 4 4 5 4 4 3 4 4 4 6 7 8 10 7 5 6 8 4 5 5 5 5 4 5 9 8 7 13 7 5 4 6 7 7 8 7 6 6 7 7 7 5 5 6 5 5 4 5 5
3 3 2 3 6 5 6 5 5 6 6 5 4 5 5 5 6 4 5 6 7 7 6 5 6 7 7 6 4 5 8 9 6 9 10 5 6 5 6 7 8 8 5 4 8 7 7 8 7 8 7 6 5 3
5 2 3 5 8 5 4 6 5 4 5 5 4 5 5 6 3 5 6 9 11 4 3 6 4 3 2 3 3 4 5 5 5 4 5 8 8 7 8 8 6 8 8 9 8 6 7 8 10 8 8 8 7 6
3 5 5 6 5 6 6 6 8 6 7 8 6 9 7 5 5 5 5 4 5 5 6 6 5 7 6 5 3 5 7 6 6 5 4 5 4 4 4 4 5 6 10 10 8 9 9 10 9 9 10 9 10 9
5 6 8 6 6 6 6 4 6 11 6 4 8 5 2 3 5 5 4 2 2 1 2 2 4 4 3 5 5 4 5 4 6 5 4 5 8 8 6 6 5 2 9 12 12 11 11 10 11 13 11 13 11 11
5 6 7 6 4 5 4 7 7 4 5 3 2 3 1 2 3 2 2 1 2 2 3 3 1 2 3 2 2 4 5 7 9 6 5 5 5 7 8 10 7 5 7 12 13 13 14 11 9 11 8 8 11 12
5 5 7 3 5 6 5 4 1 1 3 3 3 3 6 4 2 2 2 3 3 3 4 4 3 3 1 4 5 7 5 5 5 5 5 5 4 5 7 4 4 7 7 10 11 10 10 10 9 9 8 8 7 8
6 5 3 10 8 3 2 2 2 2 1 1 1 1 2 2 4 2 3 3 3 3 1 2 2 4 5 4 5 4 5 5 7 8 10 5 4 1 3 4 4 4 5 7 5 11 15 11 9 10 11 9 6 5
6 4 3 4 3 2 3 1 4 3 3 1 2 2 2 2 2 2 4 5 3 2 3 3 4 6 5 7 5 8 5 4 5 7 7 4 5 4 5 5 5 5 4 6 7 6 6 9 7 5 7 6 5 5
1 4 4 4 2 6 8 4 3 2 2 4 4 1 3 0 1 6 9 7 4 4 6 6 6 6 8 7 6 8 8 8 7 9 8 5 6 6 5 4 4 5 5 7 8 7 7 5 5 6 8 9 8 7
2 4 3 3 5 5 2 5 3 3 2 2 1 1 4 5 4 6 7 8 5 5 6 9 10 8 8 8 8 7 8 6 6 5 10 10 9 9 9 8 8 6 5 6 6 6 7 7 6 6 9 12 11 10
2 2 2 3 3 4 4 2 4 3 4 2 4 3 3 3 5 3 6 7 4 6 8 7 8 9 10 11 10 8 9 8 10 10 11 12 10 8 8 7 7 9 11 9 6 4 5 6 5 6 8 8 9 9
Wind_Direction
315 317 319 318 318 320 322 326 325 320 315 318 315 316 311 298 287 208 248 214 231 260 272 262 273 269 283 251 281 309 341 323 340 17 37 306 18 279 332 281 276 249 339 321 275 270 266 33 39 331 300 302 298 302
313 314 316 317 317 320 317 323 321 315 315 313 319 321 325 317 287 191 254 242 196 236 264 298 260 246 237 252 256 217 227 302 253 14 348 313 312 313 256 284 315 317 188 233 205 245 196 2 262 222 284 293 300 302
311 314 316 317 318 319 319 319 319 316 313 308 318 319 317 320 322 209 237 271 271 265 266 249 252 254 248 238 214 209 242 204 232 168 67 240 247 139 284 256 259 293 135 219 356 253 293 306 273 280 304 294 300 303
310 311 312 314 316 318 320 321 319 317 312 318 315 312 317 299 294 279 218 226 208 269 267 282 293 286 270 277 257 210 235 351 162 132 192 230 214 188 231 233 234 223 78 225 254 278 305 281 295 316 316 313 313 312
311 314 318 316 315 317 319 319 317 314 318 320 318 311 317 311 301 281 252 237 226 233 289 292 314 282 269 257 217 202 219 237 161 160 203 229 221 257 249 188 250 188 204 190 252 252 270 284 305 323 320 318 318 318
310 314 316 316 320 319 317 314 311 313 318 321 315 310 304 308 312 288 291 50 243 209 269 287 295 277 281 272 224 200 211 214 196 164 216 221 228 199 257 251 248 214 208 193 241 233 263 291 311 333 320 320 318 313
301 307 311 316 318 318 316 312 308 314 316 317 310 300 298 294 264 229 232 206 345 346 297 289 282 267 260 233 212 141 172 194 173 207 232 203 244 173 244 254 267 229 202 240 265 310 297 329 316 333 328 328 325 339
296 300 305 310 316 315 316 312 310 315 316 315 306 303 291 283 272 253 244 252 218 260 236 267 275 312 254 245 201 170 149 171 207 197 217 188 193 197 245 244 142 128 120 105 102 66 329 314 330 341 335 346 354 352
290 295 302 306 310 315 314 314 315 313 313 310 306 298 287 212 227 239 316 228 169 219 252 240 229 266 342 308 259 171 142 183 205 193 215 145 207 219 232 186 161 144 120 77 129 57 358 342 331 349 354 358 352 351
287 289 294 299 304 309 310 314 315 315 314 307 300 258 244 219 269 325 262 218 184 201 228 256 238 264 347 353 302 335 202 208 198 227 128 177 237 5 43 95 119 110 90 68 12 359 347 346 337 349 5 352 354 354
284 285 286 287 289 299 306 309 316 324 312 322 301 278 307 298 272 225 242 213 196 255 227 251 236 262 281 240 242 236 243 235 232 247 159 193 246 177 140 111 112 105 97 100 94 61 31 12 347 347 4 7 1 360
279 281 282 286 288 293 300 309 319 331 302 309 291 276 254 251 221 242 216 201 214 250 201 214 237 221 262 253 209 249 205 244 243 162 143 209 156 137 136 126 121 110 95 83 77 62 42 30 8 1 4 8 10 2
275 278 280 282 286 290 295 299 306 301 312 277 238 231 231 204 238 234 217 218 217 188 193 232 256 185 260 266 234 215 227 234 72 134 206 190 142 136 128 131 119 109 104 94 69 68 54 42 29 19 14 12 19 26
272 276 278 279 284 286 287 292 296 305 275 245 246 236 235 213 233 208 215 252 277 358 354 259 251 221 231 236 247 227 239 302 251 199 212 158 147 138 133 132 128 137 138 124 109 85 70 58 39 27 23 20 26 39
266 272 273 278 280 279 278 280 281 236 260 240 240 234 234 246 274 258 246 281 309 278 273 313 191 279 236 246 315 342 337 276 229 207 168 138 141 139 143 148 148 154 157 160 156 121 92 79 58 38 26 36 39 43
269 275 259 259 267 282 267 272 234 205 242 229 235 251 271 283 275 330 335 303 254 257 305 314 248 268 265 104 194 216 294 275 300 115 129 136 139 144 152 162 170 165 159 159 146 128 108 90 81 64 45 39 45 48
258 236 235 256 275 290 292 246 163 210 221 229 228 241 265 281 269 278 270 277 286 348 288 326 339 289 300 298 1 29 354 328 286 121 127 134 144 150 159 172 174 159 158 147 134 120 117 103 103 82 62 42 48 54
230 252 269 276 277 290 210 190 220 223 236 226 247 245 246 246 269 273 283 280 245 230 244 226 178 277 270 332 333 269 314 320 326 117 139 152 146 155 161 150 120 135 142 141 139 130 124 118 112 99 94 80 64 52
242 246 255 276 276 188 234 222 197 251 231 239 227 237 252 259 254 263 267 270 257 246 212 170 252 221 249 196 232 186 222 19 317 315 71 154 152 161 149 130 131 134 122 115 136 138 141 142 134 127 124 97 88 73
267 268 252 266 224 190 219 235 227 259 243 230 229 237 235 242 256 264 264 262 234 222 217 209 211 224 208 233 189 195 172 122 277 247 302 149 140 139 138 134 140 122 106 105 111 115 118 116 116 137 138 143 129 125
242 232 240 224 166 209 237 216 229 235 244 240 242 245 248 255 246 249 256 256 221 216 249 211 224 227 226 231 178 197 159 105 347 166 205 152 143 140 141 136 126 132 136 139 139 147 142 148 153 148 144 148 152 147
228 212 145 170 179 218 242 217 231 257 240 240 307 248 264 266 261 245 249 226 243 246 220 220 221 210 224 223 210 197 201 173 168 209 238 149 145 141 153 154 145 160 159 160 154 158 157 150 147 143 140 140 118 133
194 131 138 169 200 221 252 157 208 208 220 239 210 231 243 250 236 186 230 219 233 225 208 203 208 196 197 225 227 219 188 161 162 178 192 176 173 148 149 160 168 167 160 163 155 154 155 154 142 137 136 136 137 137
67 162 205 217 200 243 211 212 209 232 220 222 229 249 243 228 193 178 231 235 247 238 200 235 191 204 220 221 184 214 178 165 153 171 169 153 166 182 172 173 171 176 168 153 153 145 145 148 139 147 153 154 167 171
180 216 214 216 205 221 230 234 209 221 226 205 221 231 241 173 179 207 219 240 228 232 232 222 195 192 185 208 205 209 189 140 159 174 202 157 131 125 131 151 166 156 144 141 149 149 152 152 159 167 167 170 179 179
220 216 204 214 203 207 215 254 249 218 249 226 235 222 171 158 189 226 222 200 204 231 246 194 192 173 192 175 162 159 184 158 139 142 187 164 165 154 163 149 128 126 167 154 153 160 163 172 170 177 182 186 181 174
243 247 213 224 234 237 234 230 242 245 221 237 328 336 117 176 247 334 313 340 33 319 313 311 231 154 162 239 154 147 141 157 168 170 151 164 163 159 158 167 176 170 162 161 162 166 172 176 176 184 180 171 173 175
244 268 249 273 237 212 236 271 190 209 301 340 345 38 351 347 289 300 346 313 314 279 264 255 220 211 195 151 138 136 107 97 94 93 95 98 125 144 152 145 160 123 156 181 166 165 174 176 173 165 157 173 186 170
235 243 209 290 306 278 249 286 351 8 13 130 316 188 237 263 282 327 289 288 299 295 234 105 46 92 87 90 91 115 119 122 133 135 121 115 104 38 122 126 131 141 152 154 167 168 174 174 163 165 172 174 166 141
247 204 115 271 278 291 268 39 316 298 42 65 283 267 263 254 21 297 306 319 356 26 77 68 51 90 106 102 76 61 36 91 119 135 146 168 192 174 154 142 149 148 128 118 118 109 110 116 107 105 129 136 152 151
237 142 224 227 188 233 247 188 227 254 234 231 208 226 284 341 43 0 4 11 24 69 86 71 53 55 80 81 91 85 61 26 58 93 102 85 84 82 75 107 121 110 110 120 117 114 114 114 140 149 152 158 169 173
233 200 227 295 298 283 353 174 208 192 190 90 16 34 12 25 31 3 351 353 50 49 39 76 87 80 83 85 73 69 80 79 44 50 89 86 78 74 70 65 68 71 81 95 118 132 143 149 162 167 167 167 175 181
203 190 255 266 299 339 326 38 11 30 55 70 31 29 34 68 48 329 345 15 43 81 81 80 75 71 71 78 87 82 69 70 67 54 54 65 68 74 76 58 58 63 61 49 31 67 100 139 140 150 164 180 181 184